Tracking 25995 objects as of 20-Aug-2022
HD Live streaming from Space Station
objects crossing your sky now

THOR ABLESTAR DEB

Track THOR ABLESTAR DEB now!
10-day predictions


NORAD ID: 120
Int'l Code: 1961-015E
Perigee: 724.2 km
Apogee: 901.5 km
Inclination: 66.7 °
Period: 101.0 minutes
Semi major axis: 7183 km
RCS: 0.214 m2 (medium)
Launch date: June 29, 1961
Source: United States (US)
Launch site: AIR FORCE EASTERN TEST RANGE (AFETR)

Note: This is SATELLITE DEBRIS
aabbcc
Your satellite tracking list
Your tracking list is empty




NASA's NSSDC Master Catalog

Two Line Element Set (TLE):
1 00120U 61015E   22231.40232372  .00000298  00000-0  14881-3 0  9993
2 00120  66.7062 113.8652 0123375 292.8979  65.9132 14.25824207148795
Source of the keplerian elements: AFSPC